Theta_e
310 306 305 305 304 303 303 301 299 293 290 292 291 294 292 291 291 291 290 295 299 299 298 297 296 296 296 296 296 295 296 296 295 295 295 295 295 295
312 310 306 307 305 304 304 304 303 301 298 295 293 291 292 291 291 289 288 291 296 298 298 297 296 296 296 296 296 296 296 296 296 296 296 295 295 295
313 311 310 308 307 304 304 304 303 302 300 294 291 290 291 290 289 288 287 286 289 295 297 297 296 296 296 295 295 296 295 296 296 295 295 295 294 294
314 312 310 310 307 308 305 303 304 303 302 299 288 287 288 289 288 286 285 286 285 291 294 295 295 294 294 294 294 294 294 294 294 294 294 294 293 293
315 313 312 311 309 307 306 305 304 303 302 301 287 286 285 288 286 285 285 284 285 288 292 293 293 294 294 293 293 293 293 292 292 292 292 292 292 292
315 314 313 312 310 309 306 304 304 302 301 300 290 287 287 285 286 284 282 284 283 283 286 287 290 292 292 293 292 292 292 292 291 291 291 290 290 291
314 314 313 310 303 308 308 305 304 302 301 298 292 287 286 284 284 285 285 285 282 282 282 282 282 283 283 289 288 289 290 289 289 289 288 288 289 289
309 309 307 296 298 298 300 303 303 301 299 294 291 288 287 287 287 285 284 281 279 281 280 280 280 280 281 281 285 288 288 287 287 287 287 287 287 287
297 296 295 293 291 294 294 294 295 296 300 294 292 290 289 287 286 285 284 284 281 280 280 278 279 279 281 281 286 286 286 286 286 286 286 286 286 286
292 292 292 293 291 290 291 291 292 292 295 294 294 293 292 289 289 289 286 281 278 280 280 277 277 278 278 279 284 285 285 285 285 285 285 285 285 285
289 289 289 289 291 291 288 288 287 287 291 294 294 294 293 291 291 286 283 281 276 277 277 278 277 276 277 276 279 285 285 285 285 284 284 284 284 283
288 287 287 288 290 291 289 287 287 286 285 286 287 290 291 290 289 290 285 282 278 276 278 276 275 276 274 277 275 277 278 283 283 283 282 282 281 276
287 287 285 289 290 291 292 286 287 286 287 286 284 284 284 284 283 284 286 285 281 279 279 278 276 275 276 273 274 274 276 277 277 278 281 281 281 278
287 286 286 289 290 291 290 289 290 286 284 283 282 281 281 281 282 282 281 280 280 280 281 279 276 276 275 273 272 274 274 275 275 275 275 278 279 278
286 287 289 289 289 290 291 290 286 284 283 282 280 280 280 280 279 278 277 277 277 278 278 278 278 277 276 275 272 272 273 273 274 274 273 273 272 272
286 286 287 287 288 286 286 287 285 285 283 281 280 280 280 280 278 278 276 276 275 273 276 277 277 276 274 274 272 271 272 270 271 272 272 271 271 272
285 285 284 284 283 283 282 283 283 283 282 281 280 279 279 278 276 277 277 276 273 272 271 273 274 274 274 273 269 269 268 268 270 270 268 266 268 270
285 284 283 283 282 281 281 281 282 282 281 281 280 280 278 277 276 277 277 276 273 272 271 271 272 271 271 271 273 266 266 266 266 267 267 264 262 265
277 280 283 282 278 281 280 281 281 282 282 281 281 280 278 277 277 276 277 275 273 273 272 272 271 270 267 266 269 274 267 265 263 262 263 264 265 263
271 272 274 277 279 280 281 280 280 280 280 279 278 278 277 277 276 276 275 274 272 271 270 270 270 269 268 267 266 267 274 263 262 259 261 262 266 271
267 268 270 273 274 276 277 278 279 279 278 278 277 277 277 276 275 275 274 273 271 270 268 268 267 269 267 266 265 264 265 273 268 261 259 260 259 259
265 266 267 270 272 273 274 275 275 275 275 275 275 275 275 275 273 273 272 271 270 269 266 266 267 267 266 266 262 260 262 264 268 271 272 270 263 259
265 265 266 267 269 272 272 272 272 272 272 272 272 272 272 271 271 270 269 269 268 267 266 265 265 266 264 264 262 260 259 260 260 259 260 271 272 273
Wind_Speed
16 13 13 11 10 10 9 8 10 8 10 7 5 12 10 10 10 12 12 17 19 19 18 16 14 14 13 11 10 9 8 7 6 6 5 4 3 2
13 16 15 13 11 10 11 11 11 12 10 9 10 7 12 10 15 14 12 16 18 18 18 17 17 15 13 12 11 10 9 8 8 7 6 5 5 2
15 16 17 16 12 10 11 11 11 11 13 4 4 3 12 13 12 10 13 11 10 17 17 18 17 16 14 12 11 10 10 9 9 8 7 6 5 4
18 17 18 13 16 16 11 14 13 13 12 17 5 5 7 14 12 14 9 8 8 15 18 18 17 16 14 13 12 11 10 8 8 8 7 7 6 4
19 19 19 18 17 13 14 14 13 11 12 12 7 3 3 8 6 5 8 7 6 13 19 18 16 16 15 14 13 11 10 8 9 9 9 8 8 6
19 19 19 19 19 18 16 17 15 14 14 13 6 7 7 8 9 11 8 4 6 5 8 8 10 12 15 14 12 10 8 9 10 10 8 8 8 7
17 18 18 19 21 22 14 16 17 15 13 12 7 6 8 10 16 10 9 8 5 5 5 4 3 4 4 10 5 7 8 8 9 8 8 8 8 6
10 10 10 9 13 18 23 27 20 18 16 10 10 12 15 13 12 14 11 8 6 5 5 4 5 4 3 4 9 10 9 9 8 7 7 7 7 5
6 6 6 5 7 7 7 9 9 13 19 14 15 14 12 15 14 15 11 6 4 5 5 4 2 2 3 5 10 10 9 9 9 7 7 6 5 4
5 6 8 9 6 7 7 8 8 9 13 11 13 12 13 16 18 16 13 8 7 6 2 4 3 2 2 1 10 10 10 9 9 8 7 7 6 6
7 6 5 8 8 10 6 7 5 5 5 10 11 13 17 24 18 13 11 11 4 3 2 4 4 4 2 2 1 12 13 13 12 9 7 6 6 8
6 5 7 10 10 11 9 7 8 6 6 6 5 11 17 18 24 15 13 12 6 3 6 4 5 5 4 1 0 3 3 9 11 8 7 8 9 4
6 5 2 11 14 14 16 7 6 7 9 7 7 7 7 9 5 8 10 12 6 2 8 5 5 4 4 5 2 2 3 3 3 4 8 10 9 9
7 4 5 12 13 14 11 7 7 10 5 7 7 6 8 7 7 8 9 8 6 3 14 4 5 4 6 3 4 3 2 3 3 3 3 7 10 9
4 7 14 14 14 9 10 10 11 6 6 6 6 7 5 7 10 10 12 14 13 8 5 3 7 6 3 5 5 4 5 2 2 4 2 3 3 2
6 5 8 8 4 3 3 6 4 5 6 7 8 7 8 7 8 6 8 8 9 6 9 8 8 4 4 6 4 4 3 4 2 2 3 2 2 3
5 2 3 3 3 3 4 4 4 5 5 6 8 8 8 8 7 6 8 5 5 5 4 5 8 9 6 5 4 3 3 3 2 3 3 1 0 1
4 3 3 2 3 2 3 3 3 5 5 6 7 8 8 8 8 7 6 7 9 7 6 3 5 3 3 6 6 4 2 3 1 2 2 3 1 2
9 10 6 3 3 2 2 2 2 2 4 3 5 5 6 7 10 8 7 7 8 7 5 4 3 2 3 3 1 4 4 2 2 2 1 2 2 3
8 8 9 9 5 3 3 3 4 5 6 6 6 7 7 7 8 8 7 9 9 7 6 3 3 2 3 4 4 1 6 4 3 2 0 1 2 4
9 9 8 8 8 7 6 5 5 5 5 6 6 6 7 7 8 7 8 10 11 7 7 5 2 7 5 4 4 2 2 6 5 4 3 2 2 3
8 8 8 8 8 8 6 6 7 7 6 6 7 7 6 7 7 8 8 8 7 6 6 5 3 2 3 3 2 3 1 3 4 3 3 6 4 2
8 8 7 8 7 7 6 6 7 7 6 7 6 7 7 8 7 7 7 8 8 8 7 5 2 3 2 3 3 1 1 1 1 3 3 4 6 9
Wind_Direction
219 215 218 220 217 215 214 203 210 220 223 215 185 202 192 181 195 193 168 191 203 202 200 198 200 198 200 200 205 208 212 209 210 220 226 221 221 224
221 220 219 224 217 215 216 216 214 227 239 185 202 189 189 189 182 180 183 176 196 204 204 202 203 204 206 204 208 216 222 224 226 229 238 249 243 235
220 223 225 224 224 221 217 219 223 221 239 199 189 178 179 182 181 195 164 175 188 201 204 204 208 209 209 210 211 218 229 229 235 233 233 241 250 265
224 221 228 227 225 227 221 223 222 219 222 237 177 176 198 192 175 169 187 161 175 199 203 204 208 211 213 212 211 216 226 233 242 240 238 237 235 242
225 225 226 224 228 223 221 223 224 222 221 233 187 165 112 169 157 164 163 145 164 198 202 205 209 213 214 217 216 216 222 226 236 234 230 236 237 229
231 229 227 226 225 224 222 220 222 223 221 220 177 181 173 160 164 167 168 162 172 200 198 177 199 212 217 218 221 217 210 218 227 227 228 232 241 238
231 232 232 231 228 223 219 220 224 227 226 219 197 173 172 167 182 175 167 162 173 185 167 172 159 179 211 221 207 195 200 209 219 217 221 233 234 230
259 256 253 245 236 232 226 227 215 218 224 203 188 200 193 187 176 169 153 156 185 185 149 178 157 185 183 181 197 191 184 179 195 206 210 216 210 205
281 272 268 255 256 253 249 243 256 243 226 197 199 201 183 183 170 170 165 146 145 151 134 141 132 143 175 166 171 166 168 171 176 183 194 195 177 168
276 274 278 273 238 236 254 255 236 214 211 202 212 201 192 176 183 171 152 110 76 123 175 121 132 129 104 96 152 162 170 170 159 154 160 147 124 99
299 285 275 270 265 240 234 238 229 223 217 218 195 174 172 174 168 140 147 147 118 157 208 109 148 119 117 96 190 148 142 140 133 131 132 120 100 76
279 292 265 267 264 231 230 217 221 203 144 128 141 162 165 173 167 164 156 157 122 125 201 115 133 154 123 96 68 84 100 129 126 125 121 113 103 88
307 309 287 284 281 250 231 211 222 147 173 140 125 125 134 146 124 131 153 151 147 118 172 119 153 150 96 140 127 129 127 112 96 103 120 118 97 102
299 301 290 293 288 267 249 203 200 147 138 132 128 129 128 122 111 102 89 79 58 133 154 117 125 148 129 133 146 132 119 122 130 126 117 99 89 77
293 301 315 317 305 280 247 175 151 148 142 139 130 119 116 110 105 96 87 88 77 74 77 67 115 113 105 124 140 144 130 140 148 134 125 109 101 95
330 325 331 340 348 70 91 135 142 152 154 144 134 114 121 121 115 115 110 109 98 77 52 70 94 94 92 96 94 112 116 146 133 121 116 92 93 99
334 329 346 356 16 52 57 69 83 108 124 128 131 130 131 125 120 120 123 117 112 133 116 78 71 71 67 108 97 110 127 113 150 142 97 108 255 142
338 349 350 5 17 50 91 93 93 112 126 134 135 141 141 140 132 123 122 114 123 127 123 112 118 99 67 44 76 111 71 110 110 84 87 112 344 306
17 0 4 8 19 14 37 57 61 78 108 119 131 124 123 121 125 128 121 117 116 116 109 111 108 100 97 102 37 128 127 124 123 68 127 137 168 246
18 8 360 356 2 15 37 59 80 85 90 96 100 108 114 124 129 127 124 119 115 108 99 75 75 73 110 140 140 61 97 113 111 138 173 319 255 334
5 4 2 4 4 7 18 42 62 75 88 104 106 111 118 121 116 113 110 112 112 112 109 96 66 92 98 82 71 66 348 81 148 143 153 94 7 358
4 2 357 1 13 10 16 29 55 52 56 64 74 78 83 95 99 102 109 112 105 106 101 99 80 59 62 73 111 110 9 346 8 13 200 188 158 238
356 359 3 2 5 22 16 37 54 60 58 66 71 72 79 88 84 86 94 99 109 108 113 111 87 57 75 95 97 111 89 5 10 2 321 307 264 262